K8JWL-13 Weather Reports


Display with metric or nautical units.
time (UTC)temp
F
wind
direction
speed
MPH
gust
MPH
rain 1hr
in
rain 24hr
in
rain mn
in
humidity
%
barometer
mb
20260505170242 71 347 6.0 0.0 157.51 0.00 0.01 55 1008.9
20260505165242 71 271 6.0 0.0 157.51 0.00 0.01 54 1008.9
20260505164742 71 256 8.0 0.0 157.51 0.00 0.01 54 1008.9
20260505164242 71 284 7.0 0.0 157.51 0.00 0.01 54 1009.0
20260505163742 71 224 3.0 0.0 157.51 0.00 0.01 54 1008.9
20260505162742 70 294 3.0 0.0 157.51 0.00 0.01 54 1008.9
20260505162242 70 249 4.0 0.0 157.51 0.00 0.01 54 1009.1
20260505161850 70 307 14.0 0.0 157.51 0.00 0.01 56 1009.2
20260505161742 70 214 3.0 0.0 157.51 0.00 0.01 56 1009.1
20260505161242 70 307 14.0 0.0 157.51 0.00 0.01 56 1009.2
20260505160743 69 262 11.0 0.0 157.51 0.00 0.01 58 1009.5
20260505160242 69 280 5.0 0.0 157.51 0.00 0.01 58 1009.5
20260505153242 67 274 4.0 0.0 157.51 0.00 0.01 63 1009.5
20260505152742 67 290 8.0 0.0 157.51 0.00 0.01 64 1009.3
20260505152534 66 143 1.0 0.0 157.51 0.00 0.01 65 1009.0
20260505152242 67 131 2.0 0.0 157.51 0.00 0.01 65 1009.1
20260505151742 66 143 1.0 0.0 157.51 0.00 0.01 65 1009.0
20260505130242 61 222 3.0 0.0 157.51 0.00 0.01 79 1008.2
20260505124741 61 231 4.0 0.0 157.51 0.00 0.01 79 1008.4
20260505124242 61 259 3.0 0.0 157.51 0.00 0.01 79 1008.3
20260505123741 61 243 6.0 0.0 157.51 0.00 0.01 78 1008.3
20260505123330 61 288 5.0 0.0 157.51 0.00 0.01 78 1008.3
20260505123241 61 250 5.0 0.0 157.51 0.00 0.01 78 1008.2
20260505122826 60 297 0.0 0.0 157.51 0.00 0.01 78 1008.2
20260505122742 61 288 5.0 0.0 157.51 0.00 0.01 78 1008.3
20260505122241 60 297 0.0 0.0 157.51 0.00 0.01 78 1008.2
20260505121741 60 305 5.0 0.0 157.51 0.00 0.01 78 1008.1
20260505120741 60 208 0.0 0.0 157.51 0.00 0.01 78 1007.6
20260505115742 60 294 9.0 0.0 157.51 0.00 0.01 78 1007.6
20260505115241 60 293 7.0 0.0 157.51 0.00 0.01 78 1007.2
20260505114741 60 1 3.0 0.0 157.51 0.00 0.01 78 1007.1
20260505114242 60 359 7.0 0.0 157.51 0.00 0.01 78 1006.0
20260505113741 60 235 8.0 0.0 157.51 0.00 0.01 78 1005.9
20260505113241 60 215 7.0 0.0 157.51 0.00 0.01 79 1005.6
20260505112742 60 259 4.0 0.0 157.51 0.00 0.01 80 1005.3
20260505112242 60 139 8.0 0.0 157.51 0.00 0.01 80 1005.3
20260505111741 59 180 6.0 0.0 157.51 0.00 0.01 80 1005.3
20260505111241 59 193 7.0 0.0 157.51 0.00 0.01 81 1005.3
20260505110741 59 208 5.0 0.0 157.51 0.00 0.01 81 1005.4
20260505110242 59 214 5.0 0.0 157.51 0.00 0.01 81 1005.6
20260505102148 60 302 6.0 0.0 157.51 0.00 0.01 77 1007.4
20260505101741 60 302 6.0 0.0 157.51 0.00 0.01 77 1007.4
20260505101242 61 249 4.0 0.0 157.51 0.00 0.01 76 1007.6
20260505100241 62 260 4.0 0.0 157.51 0.00 0.01 74 1007.7
20260505095741 62 277 4.0 0.0 157.51 0.00 0.01 72 1007.7
20260505095241 62 243 6.0 0.0 157.50 0.00 0.00 70 1007.8
20260505094741 62 288 6.0 0.0 157.50 0.00 0.00 69 1007.6
20260505093741 63 246 2.0 0.0 157.50 0.00 0.00 69 1007.6
20260505093352 63 260 3.0 0.0 157.50 0.00 0.00 69 1007.5
20260505093241 63 260 3.0 0.0 157.50 0.00 0.00 69 1007.5
20260505092241 63 343 0.0 0.0 157.50 0.00 0.00 68 1007.3
20260505091741 63 245 4.0 0.0 157.50 0.00 0.00 68 1007.4
20260505091242 63 269 1.0 0.0 157.50 0.00 0.00 67 1007.3
20260505090741 64 270 1.0 0.0 157.50 0.00 0.00 67 1007.2
20260505090241 64 256 3.0 0.0 157.50 0.00 0.00 67 1007.3
20260505085742 64 249 3.0 0.0 157.50 0.00 0.00 66 1007.3
20260505085241 64 264 4.0 0.0 157.50 0.00 0.00 66 1007.4
20260505082741 64 342 4.0 0.0 157.50 0.00 0.00 64 1007.0
20260505082241 64 240 6.0 0.0 157.50 0.00 0.00 64 1006.8
20260505081741 64 6 1.0 0.0 157.50 0.00 0.00 64 1006.7
20260505081242 64 238 0.0 0.0 157.50 0.00 0.00 64 1006.6
20260505080741 64 278 1.0 0.0 157.50 0.00 0.00 64 1006.5
20260505080241 64 266 6.0 0.0 157.50 0.00 0.00 64 1006.5
20260505075742 64 276 6.0 0.0 157.50 0.00 0.00 64 1006.5
20260505075241 65 142 2.0 0.0 157.50 0.00 0.00 64 1006.5
20260505074742 65 278 7.0 0.0 157.50 0.00 0.00 64 1006.4
20260505074242 65 287 7.0 0.0 157.50 0.00 0.00 63 1006.1
20260505073241 65 222 5.0 0.0 157.50 0.00 0.00 62 1006.0
20260505072741 65 248 3.0 0.0 157.50 0.00 0.00 62 1005.9
20260505071741 65 176 3.0 0.0 157.50 0.00 0.00 62 1005.8
20260505071241 65 221 7.0 0.0 157.50 0.00 0.00 62 1005.6
20260505070741 65 212 1.0 0.0 157.50 0.00 0.00 63 1005.7
20260505070241 65 228 9.0 0.0 157.50 0.00 0.00 63 1005.8
20260505065741 65 250 6.0 0.0 157.50 0.00 0.00 62 1005.8
20260505065241 65 266 6.0 0.0 157.50 0.00 0.00 61 1005.8
20260505064742 66 203 2.0 0.0 157.50 0.00 0.00 61 1005.7
20260505063742 66 158 2.0 0.0 157.50 0.00 0.00 61 1005.6
20260505063241 66 176 2.0 0.0 157.50 0.00 0.00 61 1005.5
20260505061742 66 205 10.0 0.0 157.50 0.00 0.00 60 1005.4
20260505061241 66 273 5.0 0.0 157.50 0.00 0.00 60 1005.3
20260505060742 66 232 6.0 0.0 157.50 0.00 0.00 60 1005.4
20260505060241 66 200 2.0 0.0 157.50 0.00 0.00 60 1005.3
20260505055743 66 160 1.0 0.0 157.50 0.00 0.00 60 1005.4
20260505054741 66 3 1.0 0.0 157.50 0.00 0.00 60 1005.5
20260505054241 66 158 4.0 0.0 157.50 0.00 0.00 60 1005.5
20260505053241 66 269 13.0 0.0 157.50 0.00 0.00 59 1005.6
20260505052242 66 224 3.0 0.0 157.50 0.00 0.00 60 1005.6
20260505051741 66 212 4.0 0.0 157.50 0.00 0.00 60 1005.7
20260505050741 66 194 4.0 0.0 157.50 0.00 0.00 61 1005.9
20260505050242 66 188 3.0 0.0 157.50 0.00 0.00 61 1006.0
20260505041740 66 143 7.0 0.0 157.50 0.00 0.00 60 1006.0
20260505041241 66 235 2.0 0.0 157.50 0.00 0.00 60 1006.1
20260505040242 66 232 1.0 0.0 157.50 0.00 0.00 60 1006.1
20260505035743 66 218 4.0 0.0 157.50 0.00 0.00 60 1006.1
20260505034740 67 187 4.0 0.0 157.50 0.00 0.00 59 1006.2
20260505034242 66 194 4.0 0.0 157.50 0.00 0.00 59 1006.2
20260505033740 67 197 5.0 0.0 157.50 0.00 0.00 59 1006.4
20260505033242 67 191 1.0 0.0 157.50 0.00 0.00 59 1006.4
20260505032741 67 204 1.0 0.0 157.50 0.00 0.00 59 1006.2
20260505032242 67 239 2.0 0.0 157.50 0.00 0.00 59 1006.2
20260505031740 67 183 2.0 0.0 157.50 0.00 0.00 59 1006.2
20260505031241 67 180 1.0 0.0 157.50 0.00 0.00 59 1006.2
20260505030740 67 113 3.0 0.0 157.50 0.00 0.00 59 1006.2
20260505030240 67 290 0.0 0.0 157.50 0.00 0.00 58 1006.2
20260505025743 67 262 3.0 0.0 157.50 0.00 0.00 58 1006.1
20260505025242 67 250 1.0 0.0 157.50 0.00 0.00 59 1006.2
20260505024241 67 118 3.0 0.0 157.50 0.00 0.00 59 1006.0
20260505023740 67 191 1.0 0.0 157.50 0.00 0.00 59 1005.9
20260505023244 67 179 3.0 0.0 157.50 0.00 0.00 59 1005.9
20260505022741 67 248 2.0 0.0 157.50 0.00 0.00 59 1005.9
20260505022240 67 262 3.0 0.0 157.50 0.00 0.00 59 1006.0
20260505021740 67 208 5.0 0.0 157.50 0.00 0.00 59 1005.9
20260505021241 67 211 2.0 0.0 157.50 0.00 0.00 59 1005.9
20260505020742 67 350 2.0 0.0 157.50 0.00 0.00 58 1005.9
20260505020240 67 270 5.0 0.0 157.50 0.00 0.00 59 1005.9
20260505015741 67 194 2.0 0.0 157.50 0.00 0.00 59 1006.0
20260505015240 67 270 1.0 0.0 157.50 0.00 0.00 59 1005.9
20260505013240 67 295 3.0 0.0 157.50 0.00 0.00 58 1005.8
20260505012242 68 135 0.0 0.0 157.50 0.00 0.00 58 1005.6
20260505011742 68 135 1.0 0.0 157.50 0.00 0.00 57 1005.4
20260505010741 68 124 2.0 0.0 157.50 0.00 0.00 56 1005.5
20260505005741 69 148 1.0 0.0 157.50 0.00 0.00 55 1005.5
20260505005241 69 207 1.0 0.0 157.50 0.00 0.00 54 1005.6
20260505004741 69 249 0.0 0.0 157.50 0.00 0.00 53 1005.6
20260505004242 69 222 2.0 0.0 157.50 0.00 0.00 53 1005.6
20260505003742 70 228 1.0 0.0 157.50 0.00 0.00 52 1005.5
20260505003241 70 274 4.0 0.0 157.50 0.00 0.00 52 1005.6
20260505002741 70 270 0.0 0.0 157.50 0.00 0.00 51 1005.6
20260505002241 70 298 1.0 0.0 157.50 0.00 0.00 50 1005.6
20260505001741 71 153 1.0 0.0 157.50 0.00 0.00 50 1005.6
20260505001648 71 142 0.0 0.0 157.50 0.00 0.00 49 1005.6
20260505001241 71 142 0.0 0.0 157.50 0.00 0.00 49 1005.6
20260505000241 72 150 4.0 0.0 157.50 0.00 0.00 48 1005.5
20260504235744 72 215 3.0 0.0 157.50 0.00 0.00 48 1005.6
20260504235559 72 186 2.0 0.0 157.50 0.00 0.00 47 1005.6
20260504235241 72 215 0.0 0.0 157.50 0.00 0.00 47 1005.6
20260504234741 72 186 2.0 0.0 157.50 0.00 0.00 47 1005.6
20260504234241 73 252 3.0 0.0 157.50 0.00 0.00 47 1005.8
20260504233241 72 257 6.0 0.0 157.50 0.00 0.00 49 1005.8
20260504232742 72 224 3.0 0.0 157.50 0.00 0.00 49 1005.8
20260504232241 73 215 2.0 0.0 157.50 0.00 0.00 47 1005.8
20260504231740 73 214 1.0 0.0 157.50 0.00 0.00 47 1005.7
20260504231241 73 276 6.0 0.0 157.50 0.00 0.00 46 1005.9
20260504225741 72 77 1.0 0.0 157.50 0.00 0.00 47 1006.0
20260504225240 73 249 5.0 0.0 157.50 0.00 0.00 46 1006.0
20260504224740 73 222 6.0 0.0 157.50 0.00 0.00 45 1006.1
20260504224241 73 187 10.0 0.0 157.50 0.00 0.00 45 1006.1
20260504223741 74 256 15.0 0.0 157.50 0.00 0.00 45 1006.2
20260504223240 74 166 3.0 0.0 157.50 0.00 0.00 45 1006.4
20260504222741 74 267 8.0 0.0 157.50 0.00 0.00 43 1006.4
20260504222240 75 281 5.0 0.0 157.50 0.00 0.00 44 1006.5
20260504221241 76 173 3.0 0.0 157.50 0.00 0.00 42 1006.4
20260504220801 77 281 4.0 0.0 157.50 0.00 0.00 39 1006.2
20260504220741 76 290 5.0 0.0 157.50 0.00 0.00 41 1006.4
20260504220240 77 214 6.0 0.0 157.50 0.00 0.00 39 1006.4
20260504215741 77 281 4.0 0.0 157.50 0.00 0.00 39 1006.2
20260504214740 77 233 8.0 0.0 157.50 0.00 0.00 39 1006.2
20260504213740 77 145 5.0 0.0 157.50 0.00 0.00 37 1006.2
20260504212656 77 260 13.0 0.0 157.50 0.00 0.00 36 1006.4
20260504212240 77 260 13.0 0.0 157.50 0.00 0.00 36 1006.4
20260504211740 78 270 10.0 0.0 157.50 0.00 0.00 36 1006.4
20260504210240 77 288 8.0 0.0 157.50 0.00 0.00 37 1006.2
20260504205741 77 353 0.0 0.0 157.50 0.00 0.00 39 1006.2
20260504205241 77 353 0.0 0.0 157.50 0.00 0.00 41 1006.4
20260504204741 77 353 0.0 0.0 157.50 0.00 0.00 42 1006.4
20260504204242 77 270 8.0 0.0 157.50 0.00 0.00 43 1006.6
20260504203740 77 128 4.0 0.0 157.50 0.00 0.00 44 1006.7
20260504203240 76 4 4.0 0.0 157.50 0.00 0.00 44 1006.9
20260504201741 75 210 4.0 0.0 157.50 0.00 0.00 45 1007.1
20260504201241 75 174 18.0 0.0 157.50 0.00 0.00 44 1007.1
20260504200740 75 260 6.0 0.0 157.50 0.00 0.00 44 1007.2
20260504200240 75 17 4.0 0.0 157.50 0.00 0.00 45 1007.3
20260504195241 75 259 11.0 0.0 157.50 0.00 0.00 44 1007.4
20260504194241 77 284 8.0 0.0 157.50 0.00 0.00 42 1007.2
20260504193240 77 240 11.0 0.0 157.50 0.00 0.00 43 1007.3
20260504192240 77 359 4.0 0.0 157.50 0.00 0.00 41 1007.4
20260504191740 77 172 16.0 0.0 157.50 0.00 0.00 42 1007.3
20260504191241 77 127 3.0 0.0 157.50 0.00 0.00 41 1007.3
20260504190740 78 328 5.0 0.0 157.50 0.00 0.00 40 1007.2
20260504190240 78 248 13.0 0.0 157.50 0.00 0.00 41 1007.2
20260504184740 78 3 9.0 0.0 157.50 0.00 0.00 39 1007.4
20260504184240 77 308 4.0 0.0 157.50 0.00 0.00 41 1007.2
20260504183740 77 269 16.0 0.0 157.50 0.00 0.00 42 1007.2
20260504183240 77 103 7.0 0.0 157.50 0.00 0.00 43 1007.3
20260504182240 76 70 6.0 0.0 157.50 0.00 0.00 44 1007.4
20260504181740 76 266 9.0 0.0 157.50 0.00 0.00 42 1007.4
20260504181240 76 208 5.0 0.0 157.50 0.00 0.00 42 1007.4
20260504180741 75 297 0.0 0.0 157.50 0.00 0.00 43 1007.4
20260504180241 75 309 4.0 0.0 157.50 0.00 0.00 46 1007.5
20260504175740 74 295 8.0 0.0 157.50 0.00 0.00 44 1007.6
20260504175241 74 218 2.0 0.0 157.50 0.00 0.00 47 1007.6
20260504174740 73 343 3.0 0.0 157.50 0.00 0.00 48 1007.6
20260504174300 72 288 9.0 0.0 157.50 0.00 0.00 48 1007.7
20260504174240 72 135 2.0 0.0 157.50 0.00 0.00 48 1007.8
20260504173740 72 288 9.0 0.0 157.50 0.00 0.00 48 1007.7
20260504173241 72 30 5.0 0.0 157.50 0.00 0.00 46 1007.8
20260504172740 72 359 5.0 0.0 157.50 0.00 0.00 49 1007.8
20260504172240 71 218 7.0 0.0 157.50 0.00 0.00 48 1007.8
20260504171240 70 165 3.0 0.0 157.50 0.00 0.00 53 1007.9